Probability
23 23 25 24 18 11 8 7 6 4 2 0 0 1 2 3 3 2 1 2 3 3 3 3 3 3 2 2 3 4 6 8 9 9 9 8 8 9 9 7 7 9 12
24 24 26 26 20 13 10 8 6 5 3 1 0 1 2 3 2 2 1 1 3 3 3 4 4 4 4 4 4 5 7 9 9 8 7 6 7 9 10 8 7 11 14
25 24 26 28 24 18 13 9 8 6 3 1 1 2 2 2 1 1 1 1 2 3 4 5 6 5 4 4 4 6 8 9 8 7 6 6 7 13 15 11 9 10 12
27 27 29 32 29 22 17 13 9 7 4 3 3 3 1 1 0 1 1 0 1 3 5 7 7 7 6 5 5 7 8 7 6 6 6 6 11 21 23 17 11 10 10
30 33 35 36 34 28 22 17 12 9 7 6 6 4 2 1 1 2 1 1 2 4 7 9 9 9 8 7 8 9 8 6 5 5 6 6 14 26 28 20 15 13 14
32 36 39 39 37 31 26 21 17 14 13 11 10 8 5 4 4 4 4 4 5 6 8 10 11 9 7 7 7 9 9 6 5 6 7 8 17 30 30 22 17 15 16
32 37 40 41 39 32 26 23 21 20 19 17 15 14 13 11 9 7 7 7 8 9 9 10 10 7 5 4 6 8 9 8 6 7 9 13 24 37 35 25 18 16 15
33 36 38 39 38 32 26 23 23 24 24 22 21 20 19 17 14 10 8 7 7 9 11 11 11 8 4 4 4 6 8 8 6 6 8 16 32 44 40 29 21 18 17
32 32 33 33 32 31 27 25 26 27 26 24 23 22 21 19 17 13 9 6 6 8 10 13 13 11 7 5 5 6 7 7 6 4 6 19 37 47 43 33 24 20 19
27 27 27 26 26 25 25 25 26 27 27 25 23 22 21 20 18 15 12 11 10 9 11 14 16 14 11 9 7 7 9 10 7 5 6 20 37 43 39 32 24 21 20
27 25 24 24 23 20 21 24 25 25 25 25 24 24 23 21 19 17 18 21 19 17 16 17 18 17 14 13 12 12 13 12 9 5 7 19 32 35 32 28 23 22 22
28 25 25 25 22 18 22 29 28 27 27 26 25 26 27 25 22 19 23 29 29 26 24 22 21 18 16 16 17 18 17 13 9 6 8 19 28 28 26 25 22 20 21
28 25 24 26 25 23 27 32 32 31 32 29 27 28 29 28 26 26 29 34 35 32 29 26 25 24 20 19 21 23 20 15 11 9 12 21 27 26 25 25 23 19 18
28 25 25 28 30 32 33 33 30 31 33 32 31 31 31 32 32 32 33 36 37 35 32 30 31 30 26 23 23 23 20 16 14 13 16 22 26 26 25 25 23 19 17
31 29 29 32 36 39 37 33 29 28 30 33 36 36 35 37 37 35 36 37 35 34 34 33 32 30 28 25 24 22 19 16 15 14 17 22 26 27 26 26 24 19 17
35 34 34 36 40 42 41 36 31 28 28 32 38 40 39 38 38 38 39 37 34 32 33 33 30 27 26 25 24 24 21 17 14 14 15 18 24 27 28 27 25 20 17
33 34 34 35 39 43 44 39 32 28 28 30 35 39 38 37 38 39 39 36 31 29 30 30 28 24 22 22 23 24 23 19 16 15 15 15 17 21 25 27 26 22 19
29 32 33 33 36 42 45 42 33 29 28 29 32 36 36 35 36 38 37 33 28 26 26 26 24 21 20 19 20 20 20 19 18 16 16 14 13 15 21 25 25 23 22
28 31 33 34 36 40 44 42 37 33 31 29 30 34 34 33 33 33 33 30 27 25 24 23 21 20 18 18 17 16 16 18 17 16 15 13 13 15 18 21 22 22 22
31 32 33 36 39 40 41 40 38 37 33 29 28 32 33 31 30 29 29 28 27 25 24 22 22 20 18 17 15 12 13 15 15 15 13 12 14 16 16 17 18 18 18
35 35 36 39 42 42 39 36 36 36 33 29 28 30 30 28 27 27 27 27 26 24 23 23 21 18 16 16 14 10 10 13 13 13 12 12 13 14 14 14 15 16 16
35 36 38 40 42 42 37 32 31 32 31 30 31 30 27 25 24 25 26 25 24 23 23 22 20 15 12 13 11 8 7 10 11 10 10 11 11 13 13 13 13 13 13
31 31 33 36 39 38 33 27 24 26 28 29 30 27 24 21 21 23 22 21 21 21 22 21 18 13 10 8 6 5 5 7 8 9 9 9 8 9 10 10 9 9 9
27 27 29 33 35 32 26 21 20 21 22 23 23 22 19 17 18 20 20 18 19 20 20 18 16 13 9 5 3 3 4 4 5 6 7 6 5 5 6 5 5 6 7
25 25 27 30 30 26 21 19 19 19 18 18 18 17 15 14 15 16 18 18 18 19 17 15 14 11 8 4 3 3 4 4 4 4 4 3 3 3 3 3 3 4 6
24 22 25 28 28 22 17 17 19 19 17 16 16 15 14 13 13 14 17 18 18 16 14 13 11 9 7 5 4 4 4 4 4 3 2 2 2 3 3 3 3 4 5
Wind_Speed
14 16 16 14 13 11 10 10 9 10 9 9 9 9 8 8 8 8 8 8 8 8 7 6 5 4 3 2 2 3 3 3 3 2 2 1 1 2 2 1 1 2 6
17 16 16 14 13 11 10 10 9 10 9 9 9 8 8 8 7 7 7 7 6 6 6 5 4 3 2 1 1 1 1 2 2 3 3 4 5 5 4 3 1 2 5
17 15 15 14 13 11 10 10 9 9 9 9 9 8 8 8 7 6 6 6 5 5 4 4 3 2 2 1 1 1 2 3 4 5 7 6 6 9 8 5 4 2 3
16 14 13 14 12 11 10 9 9 9 9 9 8 8 7 7 6 6 6 5 5 4 4 3 3 2 2 2 2 2 3 5 6 8 6 7 5 9 10 8 6 4 4
14 13 14 15 13 11 9 9 8 8 8 8 8 7 6 6 5 5 6 5 5 4 4 4 3 3 2 3 3 4 5 6 8 9 8 6 2 9 10 8 7 6 5
13 14 15 14 13 11 10 9 8 8 8 8 7 7 6 6 5 5 5 5 5 4 4 4 3 3 4 4 4 5 6 8 9 8 7 4 3 8 9 8 7 6 6
12 13 14 14 13 11 10 10 9 8 8 7 7 7 6 6 5 5 5 5 5 5 5 4 4 4 5 5 6 7 8 9 9 9 5 2 4 9 8 7 6 6 6
12 13 13 14 13 11 10 10 9 8 7 7 7 6 6 6 6 6 5 5 6 5 6 6 5 5 6 7 8 8 9 10 10 9 5 3 6 9 9 7 6 6 6
10 12 12 11 10 11 10 9 8 8 8 7 7 7 7 7 7 7 7 7 6 6 7 7 7 7 8 9 9 10 10 11 9 7 7 2 8 10 9 7 7 7 7
8 9 10 10 9 9 8 9 9 8 8 8 8 8 8 8 9 9 9 8 8 8 8 8 8 9 10 10 11 12 12 11 9 9 4 3 9 9 8 7 7 7 7
6 5 7 8 7 7 8 9 9 8 8 8 8 9 9 7 7 8 10 10 11 10 10 10 10 11 11 12 14 14 11 6 7 5 3 5 8 8 7 6 7 6 7
5 4 5 6 6 6 5 6 6 6 6 6 5 6 6 5 4 6 7 10 11 12 11 12 12 12 10 7 9 12 6 7 6 4 2 7 7 7 7 7 7 8 8
4 2 3 4 3 3 3 4 3 3 4 5 5 5 4 3 3 3 3 5 7 9 7 8 9 7 7 5 4 4 6 5 3 3 3 8 8 8 7 7 8 9 10
4 3 3 3 3 2 2 2 2 2 2 2 3 4 3 2 2 2 2 2 3 3 4 4 4 6 5 5 5 5 5 4 3 2 3 8 9 9 9 9 9 9 10
4 3 3 2 2 2 1 1 1 1 2 2 2 3 2 2 2 2 1 1 2 2 2 3 4 4 4 4 5 5 4 5 4 3 3 9 9 10 10 9 9 9 10
4 3 2 2 2 1 1 0 0 1 1 1 1 2 2 2 1 1 2 1 2 2 2 2 3 3 3 3 5 5 4 5 4 4 3 5 9 10 10 10 10 10 10
4 3 2 1 2 1 0 1 1 1 1 1 1 2 2 2 1 1 2 1 2 2 2 3 3 3 4 4 4 5 4 5 4 4 4 3 5 10 12 12 12 11 10
2 2 2 2 3 2 1 1 1 2 1 1 1 1 2 2 1 1 2 1 2 2 2 3 3 3 3 4 3 4 4 3 5 5 4 4 3 4 8 12 12 12 11
2 3 2 3 3 2 1 1 1 1 1 1 1 0 1 2 2 1 2 1 2 2 3 4 2 2 3 4 4 4 4 3 4 5 4 4 4 3 4 8 13 13 13
3 3 2 2 2 1 1 1 1 1 1 1 1 0 1 2 2 2 2 2 2 2 2 2 3 3 3 4 6 5 3 4 4 4 4 4 4 4 4 5 6 9 14
2 2 2 1 1 1 1 1 1 2 2 1 1 1 1 2 2 2 3 2 2 2 3 3 3 4 3 3 3 4 4 4 4 3 3 3 4 4 4 4 4 3 5
3 2 2 1 1 1 2 1 1 2 2 2 1 1 2 2 3 3 3 2 2 2 3 4 3 3 3 2 2 2 3 3 3 4 3 4 4 3 4 5 4 4 4
3 3 2 1 1 1 1 1 2 1 2 1 2 1 2 2 3 3 3 3 2 2 3 3 3 4 3 3 2 2 2 2 2 3 4 4 3 3 3 3 5 5 6
2 3 2 2 2 1 1 2 2 2 2 3 2 2 2 3 3 3 3 3 2 2 3 3 3 3 3 3 3 3 3 2 2 2 3 3 4 4 4 4 4 4 5
3 3 3 3 2 1 2 2 2 3 3 3 2 3 2 3 3 3 3 3 2 3 3 3 2 3 3 3 3 3 3 3 4 3 4 3 3 3 4 4 4 3 4
3 2 2 2 2 2 2 2 2 3 4 4 3 3 2 2 3 3 3 2 2 2 2 2 2 3 3 4 4 3 2 2 3 3 4 3 3 3 3 3 3 3 3
Wind_Direction
114 122 126 124 122 122 124 126 127 127 126 126 125 122 119 117 114 112 111 111 113 117 120 121 123 120 111 89 59 45 40 35 26 21 17 35 111 120 119 120 221 158 120
115 123 127 125 125 125 127 129 130 131 130 130 131 130 128 127 126 126 126 126 128 130 132 135 137 139 136 119 77 21 354 340 324 305 280 249 219 193 181 186 212 77 119
114 124 127 125 125 126 129 130 133 135 134 134 136 136 136 136 138 139 140 142 144 147 149 153 156 159 165 183 223 263 275 278 281 279 272 256 218 194 186 187 177 160 150
118 127 126 127 126 127 129 131 134 138 139 139 139 139 141 145 151 153 156 159 160 162 166 170 178 186 205 234 249 262 264 266 270 273 262 250 229 181 178 183 185 186 185
116 120 124 131 129 130 131 132 136 140 142 143 143 144 145 150 157 166 170 173 176 181 189 194 200 206 222 239 248 258 265 270 271 268 263 262 228 163 173 182 186 194 197
122 124 128 133 132 134 135 136 139 143 145 147 149 151 153 158 162 171 181 187 193 198 204 209 216 221 230 239 247 257 265 269 272 262 251 245 157 162 170 183 189 196 201
123 123 132 137 138 142 143 144 147 149 150 152 154 159 163 168 175 183 190 197 205 210 214 223 230 235 243 249 252 256 263 268 265 268 264 225 155 156 166 188 202 204 210
120 123 130 140 144 147 149 152 155 156 157 161 163 168 173 177 183 190 199 210 217 221 226 233 237 242 251 254 255 257 261 267 269 270 258 208 154 157 166 183 201 209 211
119 125 137 144 148 152 156 160 162 164 167 171 175 180 187 191 196 202 207 216 222 226 232 236 243 248 252 254 255 256 258 262 271 272 264 195 153 163 171 183 201 211 216
116 126 136 143 150 157 161 166 168 171 176 180 185 189 196 203 209 211 210 213 221 228 233 239 245 248 249 252 252 252 255 262 258 262 256 178 157 164 174 188 204 214 222
99 114 131 138 148 159 161 161 170 175 183 186 193 202 207 213 213 212 216 206 218 226 232 237 242 246 249 248 247 247 251 250 252 250 241 163 158 165 177 193 206 216 230
117 138 130 133 150 160 157 150 176 182 182 195 196 201 208 217 222 221 198 205 217 227 232 236 241 247 248 245 238 236 239 243 252 253 213 161 167 177 187 200 210 217 228
124 133 118 128 135 150 140 157 179 184 171 197 199 203 210 222 222 212 197 198 215 225 228 230 234 237 236 238 237 219 227 244 244 239 191 174 183 190 196 204 214 221 229
125 127 114 118 124 121 120 164 178 177 170 194 191 212 210 217 233 225 224 209 219 221 221 228 232 232 238 242 243 239 236 233 239 229 194 187 193 198 204 211 219 226 231
96 87 75 91 105 114 124 238 143 148 185 199 183 205 226 221 222 240 248 235 263 258 234 238 249 249 251 251 250 248 246 248 247 237 206 202 202 205 207 211 219 227 233
78 71 64 72 87 102 140 205 210 233 220 216 175 193 224 239 225 247 252 237 260 273 275 264 267 268 261 260 255 254 245 247 243 239 232 213 213 210 211 214 222 226 231
52 55 49 74 80 57 125 237 260 258 235 230 194 197 202 238 234 263 267 244 262 276 274 268 275 275 267 261 248 248 249 242 242 235 238 230 217 216 215 214 219 222 228
57 62 36 46 66 48 13 322 310 300 289 265 237 201 195 228 230 251 265 267 281 277 270 267 262 265 271 277 271 259 250 239 234 233 229 230 225 221 215 213 216 220 224
60 78 62 47 48 25 3 321 271 258 291 293 308 269 236 244 241 250 266 265 270 273 273 276 278 285 285 281 274 254 247 250 240 238 225 228 230 224 212 210 216 220 223
65 65 69 71 47 5 7 317 300 284 285 279 286 262 254 267 263 255 259 251 261 277 276 280 292 283 275 275 277 279 268 254 246 238 232 231 225 228 221 214 211 220 222
106 99 91 71 61 16 359 335 329 312 299 281 255 272 265 274 279 274 279 288 266 264 279 288 284 275 271 263 271 282 269 254 246 238 231 231 225 226 226 214 208 214 218
124 109 97 86 51 28 2 329 290 305 288 279 298 238 251 281 287 277 279 270 274 283 285 280 280 282 275 258 256 281 286 268 255 246 226 223 229 228 229 229 212 212 221
121 123 109 87 59 41 345 333 328 324 311 335 319 282 252 259 267 273 280 273 271 270 268 270 269 269 280 283 254 247 267 270 289 248 240 235 221 223 233 233 227 217 218
88 100 94 86 59 40 355 358 334 330 322 319 313 314 310 284 276 276 272 272 269 268 269 273 275 274 273 279 271 245 238 258 265 280 256 238 228 227 229 241 244 232 223
71 72 73 70 51 28 354 340 318 323 317 314 317 312 300 291 280 276 276 279 277 272 269 274 289 281 273 274 279 273 258 249 245 252 272 270 254 237 224 223 227 226 226
75 75 77 65 36 14 348 337 325 315 312 310 311 310 300 285 275 276 289 299 293 282 282 285 282 278 276 281 286 283 277 272 264 249 257 264 262 258 245 229 224 221 219